Погода в Рождественском

Россия / Воронежская область     51°14′24″N   42°10′31″E
темп.,
°C
ветер,
м/с
пор.,
м/с
влажн.,
%
обл.,
%
осадки,
мм/ч
давл.,
гПа
погр.,
м
29 июня, ср
ср2900:00+15св411720 0.0 1018258
03:00+13св37730 0.0 1019129
06:00+14св34760 0.0 1020155
09:00+19св45580 0.0 1020960
12:00+21св44460 0.0 10201943
15:00+22ссв44422 0.0 10192142
18:00+21св34515 0.0 10181269
21:00+15св347019 0.0 101942
30 июня, чт
чт3000:00+13в33718 0.0 101927
03:00+12в22760 0.0 101913
06:00+14св00710 0.0 101977
09:00+19ссв11550 0.0 1018699
12:00+22ссз234637 0.0 10172016
15:00+21с2354100 0.0 1016510
18:00+20сз2356100 0.0 101552
21:00+19сз3558100 0.0 1015109
1 июля, пт
пт100:00+14ссз237996 0.0 101531
03:00+13ссз337620 0.0 101546
06:00+15ссз36765 0.0 1015216
09:00+20с575239 0.0 1015829
12:00+21ссв684780 0.0 10152441
15:00+21ссв684293 0.0 10152617
18:00+18св595528 0.0 10171121
21:00+13с34684 0.0 101842
2 июля, сб
сб200:00+11с33770 0.0 101943
03:00+10ссз37800 0.0 1019111
06:00+12ссз411702 0.0 1019294
09:00+18с68505 0.0 10191236
12:00+21с67423 0.0 10181834
15:00+22с673872 0.0 10172228
18:00+21сз575285 0.0 1017860
21:00+18ссз2466100 0.0 101780
3 июля, вс
вс300:00+16зюз337181 0.0 101637
03:00+14сз22865 0.0 101518
06:00+16сз228134 0.0 1015133
09:00+19ссв117381 0.1 1016551
12:00+23вюв335416 0.1 10161333
15:00+23в4455100 0.1 10161028
18:00+23всв245874 0.0 1017445
21:00+18всв22715 0.0 101811